| time (UTC) | temp F | wind direction | speed MPH | gust MPH | rain 1hr in | rain 24hr in | rain mn in | humidity % | barometer mb |
| 20260507154405 | 46 | 262 | 3.0 | 11.0 | 0.00 | 0.00 | 0.00 | 59 | 1010.4 |
| 20260507153902 | 45 | 279 | 4.0 | 10.0 | 0.00 | 0.00 | 0.00 | 57 | 1010.5 |
| 20260507153631 | 45 | 299 | 4.0 | 9.0 | 0.00 | 0.00 | 0.00 | 59 | 1010.4 |
| 20260507152902 | 44 | 314 | 4.0 | 9.0 | 0.00 | 0.00 | 0.00 | 59 | 1010.5 |
| 20260507152401 | 44 | 298 | 4.0 | 13.0 | 0.00 | 0.00 | 0.00 | 62 | 1010.6 |
| 20260507151859 | 44 | 149 | 1.0 | 13.0 | 0.00 | 0.00 | 0.00 | 64 | 1010.6 |
| 20260507151132 | 43 | 25 | 3.0 | 4.0 | 0.00 | 0.00 | 0.00 | 67 | 1010.7 |
| 20260507150400 | 43 | 7 | 1.0 | 5.0 | 0.00 | 0.00 | 0.00 | 66 | 1010.6 |
| 20260507145858 | 44 | 9 | 2.0 | 6.0 | 0.00 | 0.00 | 0.00 | 68 | 1010.6 |
| 20260507145358 | 44 | 25 | 3.0 | 6.0 | 0.00 | 0.00 | 0.00 | 68 | 1010.6 |
| 20260507144858 | 44 | 31 | 3.0 | 5.0 | 0.00 | 0.00 | 0.00 | 68 | 1010.7 |
| 20260507144358 | 44 | 56 | 2.0 | 5.0 | 0.00 | 0.00 | 0.00 | 66 | 1010.6 |
| 20260507143856 | 44 | 355 | 3.0 | 5.0 | 0.00 | 0.00 | 0.00 | 69 | 1010.6 |
| 20260507143357 | 44 | 59 | 0.0 | 7.0 | 0.00 | 0.00 | 0.00 | 68 | 1010.6 |
| 20260507142856 | 44 | 72 | 2.0 | 7.0 | 0.00 | 0.00 | 0.00 | 64 | 1010.7 |
| 20260507142356 | 44 | 344 | 2.0 | 7.0 | 0.00 | 0.00 | 0.00 | 61 | 1010.6 |
| 20260507141855 | 44 | 299 | 4.0 | 9.0 | 0.00 | 0.00 | 0.00 | 61 | 1010.6 |
| 20260507141356 | 44 | 358 | 3.0 | 10.0 | 0.00 | 0.00 | 0.00 | 62 | 1010.5 |
| 20260507141126 | 44 | 298 | 4.0 | 10.0 | 0.00 | 0.00 | 0.00 | 62 | 1010.6 |
| 20260507135855 | 44 | 293 | 5.0 | 9.0 | 0.00 | 0.00 | 0.00 | 63 | 1010.8 |
| 20260507135414 | 44 | 282 | 2.0 | 7.0 | 0.00 | 0.00 | 0.00 | 63 | 1010.7 |
| 20260507134855 | 44 | 279 | 4.0 | 7.0 | 0.00 | 0.00 | 0.00 | 63 | 1010.7 |
| 20260507134356 | 44 | 323 | 1.0 | 7.0 | 0.00 | 0.00 | 0.00 | 64 | 1010.6 |
| 20260507134124 | 44 | 282 | 5.0 | 7.0 | 0.00 | 0.00 | 0.00 | 64 | 1010.7 |
| 20260507133358 | 44 | 289 | 1.0 | 10.0 | 0.00 | 0.00 | 0.00 | 64 | 1010.7 |
| 20260507132854 | 44 | 271 | 4.0 | 10.0 | 0.00 | 0.00 | 0.00 | 64 | 1010.6 |
| 20260507132355 | 44 | 250 | 4.0 | 7.0 | 0.00 | 0.00 | 0.00 | 65 | 1010.6 |
| 20260507131854 | 44 | 272 | 3.0 | 10.0 | 0.00 | 0.00 | 0.00 | 67 | 1010.6 |
| 20260507131355 | 44 | 227 | 5.0 | 10.0 | 0.00 | 0.00 | 0.00 | 68 | 1010.7 |
| 20260507131125 | 44 | 281 | 3.0 | 10.0 | 0.00 | 0.00 | 0.00 | 70 | 1010.7 |
| 20260507130354 | 43 | 265 | 4.0 | 7.0 | 0.00 | 0.00 | 0.00 | 71 | 1010.8 |
| 20260507125853 | 42 | 254 | 3.0 | 7.0 | 0.00 | 0.00 | 0.00 | 72 | 1010.7 |
| 20260507125356 | 42 | 286 | 4.0 | 7.0 | 0.00 | 0.00 | 0.00 | 73 | 1010.7 |
| 20260507124853 | 42 | 212 | 3.0 | 7.0 | 0.00 | 0.00 | 0.00 | 73 | 1010.7 |
| 20260507124353 | 42 | 307 | 5.0 | 7.0 | 0.00 | 0.00 | 0.00 | 74 | 1010.7 |
| 20260507123853 | 42 | 296 | 4.0 | 7.0 | 0.00 | 0.00 | 0.00 | 75 | 1010.7 |
| 20260507123353 | 41 | 264 | 1.0 | 5.0 | 0.00 | 0.00 | 0.00 | 75 | 1010.7 |
| 20260507122852 | 41 | 254 | 4.0 | 5.0 | 0.00 | 0.00 | 0.00 | 77 | 1010.7 |
| 20260507122353 | 41 | 262 | 2.0 | 5.0 | 0.00 | 0.00 | 0.00 | 78 | 1010.7 |
| 20260507122121 | 40 | 281 | 2.0 | 5.0 | 0.00 | 0.00 | 0.00 | 79 | 1010.6 |
| 20260507121352 | 39 | 275 | 3.0 | 5.0 | 0.00 | 0.00 | 0.00 | 80 | 1010.6 |
| 20260507120852 | 38 | 254 | 3.0 | 5.0 | 0.00 | 0.00 | 0.00 | 82 | 1010.6 |
| 20260507120352 | 38 | 247 | 3.0 | 5.0 | 0.00 | 0.00 | 0.00 | 82 | 1010.7 |
| 20260507115852 | 37 | 221 | 2.0 | 5.0 | 0.00 | 0.00 | 0.00 | 83 | 1010.6 |
| 20260507115352 | 36 | 261 | 2.0 | 5.0 | 0.00 | 0.00 | 0.00 | 84 | 1010.6 |
| 20260507114852 | 35 | 243 | 2.0 | 5.0 | 0.00 | 0.00 | 0.00 | 84 | 1010.5 |
| 20260507114622 | 35 | 268 | 3.0 | 5.0 | 0.00 | 0.00 | 0.00 | 84 | 1010.5 |
| 20260507114118 | 34 | 244 | 3.0 | 4.0 | 0.00 | 0.00 | 0.00 | 85 | 1010.5 |
| 20260507113351 | 34 | 254 | 3.0 | 4.0 | 0.00 | 0.00 | 0.00 | 86 | 1010.4 |
| 20260507112624 | 33 | 241 | 2.0 | 4.0 | 0.00 | 0.00 | 0.00 | 87 | 1010.3 |
| 20260507111850 | 33 | 259 | 2.0 | 4.0 | 0.00 | 0.00 | 0.00 | 87 | 1010.4 |
| 20260507111351 | 33 | 247 | 2.0 | 4.0 | 0.00 | 0.00 | 0.00 | 87 | 1010.3 |
| 20260507110850 | 32 | 254 | 2.0 | 4.0 | 0.00 | 0.00 | 0.00 | 87 | 1010.3 |
| 20260507110350 | 32 | 269 | 2.0 | 5.0 | 0.00 | 0.00 | 0.00 | 87 | 1010.3 |
| 20260507105851 | 32 | 268 | 2.0 | 5.0 | 0.00 | 0.00 | 0.00 | 87 | 1010.3 |
| 20260507105351 | 31 | 230 | 3.0 | 5.0 | 0.00 | 0.00 | 0.00 | 88 | 1010.2 |
| 20260507104851 | 31 | 228 | 2.0 | 4.0 | 0.00 | 0.00 | 0.00 | 87 | 1010.2 |
| 20260507104347 | 31 | 244 | 2.0 | 4.0 | 0.00 | 0.00 | 0.00 | 87 | 1010.2 |
| 20260507103850 | 31 | 244 | 2.0 | 4.0 | 0.00 | 0.00 | 0.00 | 87 | 1010.1 |
| 20260507103346 | 31 | 245 | 2.0 | 3.0 | 0.00 | 0.00 | 0.00 | 87 | 1010.1 |
| 20260507102848 | 30 | 247 | 2.0 | 3.0 | 0.00 | 0.00 | 0.00 | 87 | 1010.1 |
| 20260507102347 | 30 | 252 | 2.0 | 3.0 | 0.00 | 0.00 | 0.00 | 87 | 1010.1 |
| 20260507102130 | 30 | 258 | 2.0 | 3.0 | 0.00 | 0.00 | 0.00 | 87 | 1010.0 |
| 20260507101347 | 30 | 255 | 2.0 | 3.0 | 0.00 | 0.00 | 0.00 | 86 | 1010.2 |
| 20260507100847 | 30 | 255 | 1.0 | 3.0 | 0.00 | 0.00 | 0.00 | 86 | 1010.1 |
| 20260507100345 | 30 | 245 | 2.0 | 6.0 | 0.00 | 0.00 | 0.00 | 86 | 1010.2 |
| 20260507095844 | 30 | 243 | 2.0 | 6.0 | 0.00 | 0.00 | 0.00 | 86 | 1010.2 |
| 20260507095613 | 30 | 241 | 3.0 | 6.0 | 0.00 | 0.00 | 0.00 | 86 | 1010.2 |
| 20260507095123 | 30 | 237 | 3.0 | 5.0 | 0.00 | 0.00 | 0.00 | 86 | 1010.1 |
| 20260507094607 | 30 | 237 | 2.0 | 3.0 | 0.00 | 0.00 | 0.00 | 86 | 1010.1 |
| 20260507094106 | 30 | 234 | 2.0 | 3.0 | 0.00 | 0.00 | 0.00 | 85 | 1010.1 |
| 20260507093337 | 30 | 247 | 2.0 | 3.0 | 0.00 | 0.00 | 0.00 | 85 | 1010.1 |
| 20260507092840 | 30 | 252 | 2.0 | 3.0 | 0.00 | 0.00 | 0.00 | 85 | 1010.2 |
| 20260507092337 | 31 | 252 | 1.0 | 3.0 | 0.00 | 0.00 | 0.00 | 85 | 1010.2 |
| 20260507091837 | 31 | 245 | 2.0 | 3.0 | 0.00 | 0.00 | 0.00 | 85 | 1010.3 |
| 20260507091333 | 31 | 237 | 2.0 | 3.0 | 0.00 | 0.00 | 0.00 | 84 | 1010.3 |
| 20260507090832 | 31 | 279 | 1.0 | 3.0 | 0.00 | 0.00 | 0.00 | 85 | 1010.2 |
| 20260507090331 | 31 | 275 | 2.0 | 3.0 | 0.00 | 0.00 | 0.00 | 84 | 1010.2 |
| 20260507085832 | 31 | 274 | 2.0 | 3.0 | 0.00 | 0.00 | 0.00 | 84 | 1010.3 |
| 20260507085331 | 31 | 255 | 2.0 | 3.0 | 0.00 | 0.00 | 0.00 | 84 | 1010.3 |
| 20260507084831 | 31 | 247 | 2.0 | 5.0 | 0.00 | 0.00 | 0.00 | 84 | 1010.3 |
| 20260507084600 | 31 | 251 | 2.0 | 5.0 | 0.00 | 0.00 | 0.00 | 84 | 1010.3 |
| 20260507084102 | 31 | 241 | 2.0 | 4.0 | 0.00 | 0.00 | 0.00 | 83 | 1010.3 |
| 20260507083331 | 31 | 244 | 2.0 | 3.0 | 0.00 | 0.00 | 0.00 | 83 | 1010.4 |
| 20260507082831 | 31 | 251 | 2.0 | 4.0 | 0.00 | 0.00 | 0.00 | 83 | 1010.4 |
| 20260507082331 | 31 | 248 | 3.0 | 4.0 | 0.00 | 0.00 | 0.00 | 83 | 1010.4 |
| 20260507081831 | 31 | 245 | 2.0 | 4.0 | 0.00 | 0.00 | 0.00 | 82 | 1010.4 |
| 20260507081331 | 31 | 250 | 2.0 | 4.0 | 0.00 | 0.00 | 0.00 | 82 | 1010.4 |
| 20260507081102 | 31 | 252 | 3.0 | 4.0 | 0.00 | 0.00 | 0.00 | 82 | 1010.4 |
| 20260507080331 | 31 | 257 | 2.0 | 3.0 | 0.00 | 0.00 | 0.00 | 81 | 1010.4 |
| 20260507075830 | 31 | 251 | 2.0 | 4.0 | 0.00 | 0.00 | 0.00 | 81 | 1010.5 |
| 20260507075556 | 32 | 261 | 2.0 | 4.0 | 0.00 | 0.00 | 0.00 | 81 | 1010.5 |
| 20260507074832 | 32 | 240 | 2.0 | 4.0 | 0.00 | 0.00 | 0.00 | 81 | 1010.6 |
| 20260507074557 | 32 | 238 | 2.0 | 4.0 | 0.00 | 0.00 | 0.00 | 80 | 1010.6 |
| 20260507073831 | 32 | 247 | 2.0 | 4.0 | 0.00 | 0.00 | 0.00 | 80 | 1010.6 |
| 20260507073331 | 32 | 245 | 2.0 | 4.0 | 0.00 | 0.00 | 0.00 | 79 | 1010.6 |
| 20260507072831 | 33 | 244 | 2.0 | 3.0 | 0.00 | 0.00 | 0.00 | 79 | 1010.6 |
| 20260507072334 | 33 | 268 | 2.0 | 3.0 | 0.00 | 0.00 | 0.00 | 79 | 1010.6 |
| 20260507071829 | 33 | 268 | 2.0 | 3.0 | 0.00 | 0.00 | 0.00 | 78 | 1010.5 |
| 20260507071330 | 33 | 230 | 2.0 | 4.0 | 0.00 | 0.00 | 0.00 | 78 | 1010.5 |
| 20260507070828 | 33 | 262 | 2.0 | 4.0 | 0.00 | 0.00 | 0.00 | 78 | 1010.6 |
| 20260507070551 | 33 | 250 | 2.0 | 4.0 | 0.00 | 0.00 | 0.00 | 78 | 1010.7 |
| 20260507065828 | 34 | 257 | 2.0 | 4.0 | 0.00 | 0.00 | 0.00 | 78 | 1010.6 |
| 20260507065326 | 34 | 237 | 3.0 | 5.0 | 0.00 | 0.00 | 0.00 | 78 | 1010.7 |
| 20260507064825 | 34 | 245 | 3.0 | 5.0 | 0.00 | 0.00 | 0.00 | 77 | 1010.8 |
| 20260507064322 | 34 | 244 | 3.0 | 5.0 | 0.00 | 0.00 | 0.00 | 77 | 1010.9 |
| 20260507063320 | 35 | 247 | 3.0 | 4.0 | 0.00 | 0.00 | 0.00 | 76 | 1010.9 |
| 20260507063048 | 35 | 238 | 2.0 | 4.0 | 0.00 | 0.00 | 0.00 | 76 | 1010.9 |
| 20260507062318 | 35 | 245 | 3.0 | 4.0 | 0.00 | 0.00 | 0.00 | 76 | 1010.9 |
| 20260507062042 | 36 | 250 | 2.0 | 4.0 | 0.00 | 0.00 | 0.00 | 76 | 1010.9 |
| 20260507061312 | 36 | 240 | 2.0 | 2.0 | 0.00 | 0.00 | 0.00 | 75 | 1010.8 |
| 20260507060808 | 36 | 265 | 0.0 | 0.0 | 0.00 | 0.00 | 0.00 | 75 | 1010.8 |
| 20260507060310 | 36 | 265 | 0.0 | 1.0 | 0.00 | 0.00 | 0.00 | 75 | 1010.9 |
| 20260507060034 | 36 | 267 | 0.0 | 2.0 | 0.00 | 0.00 | 0.00 | 76 | 1011.0 |
| 20260507055306 | 36 | 271 | 1.0 | 3.0 | 0.00 | 0.00 | 0.00 | 76 | 1011.1 |
| 20260507054804 | 36 | 227 | 1.0 | 3.0 | 0.00 | 0.00 | 0.00 | 76 | 1011.0 |
| 20260507054534 | 36 | 310 | 0.0 | 2.0 | 0.00 | 0.00 | 0.00 | 77 | 1011.1 |
| 20260507053803 | 36 | 19 | 0.0 | 3.0 | 0.00 | 0.00 | 0.00 | 78 | 1011.2 |
| 20260507053302 | 36 | 32 | 1.0 | 3.0 | 0.00 | 0.00 | 0.00 | 78 | 1011.2 |
| 20260507053030 | 36 | 259 | 2.0 | 3.0 | 0.00 | 0.00 | 0.00 | 78 | 1011.2 |
| 20260507052306 | 36 | 250 | 2.0 | 4.0 | 0.00 | 0.00 | 0.00 | 78 | 1011.3 |
| 20260507051800 | 35 | 262 | 2.0 | 4.0 | 0.00 | 0.00 | 0.00 | 79 | 1011.4 |
| 20260507051300 | 35 | 258 | 2.0 | 4.0 | 0.00 | 0.00 | 0.00 | 79 | 1011.4 |
| 20260507050758 | 35 | 254 | 2.0 | 3.0 | 0.00 | 0.00 | 0.00 | 79 | 1011.4 |
| 20260507050258 | 35 | 252 | 1.0 | 3.0 | 0.00 | 0.00 | 0.00 | 78 | 1011.4 |
| 20260507045756 | 35 | 261 | 1.0 | 3.0 | 0.00 | 0.00 | 0.00 | 78 | 1011.3 |
| 20260507045255 | 35 | 267 | 1.0 | 3.0 | 0.00 | 0.00 | 0.00 | 78 | 1011.4 |
| 20260507044756 | 35 | 255 | 2.0 | 3.0 | 0.00 | 0.00 | 0.00 | 78 | 1011.4 |
| 20260507044256 | 35 | 252 | 2.0 | 3.0 | 0.00 | 0.00 | 0.00 | 78 | 1011.4 |
| 20260507044027 | 35 | 261 | 2.0 | 3.0 | 0.00 | 0.00 | 0.00 | 78 | 1011.4 |
| 20260507043251 | 35 | 254 | 2.0 | 3.0 | 0.00 | 0.00 | 0.00 | 77 | 1011.5 |
| 20260507043023 | 36 | 259 | 2.0 | 3.0 | 0.00 | 0.00 | 0.00 | 77 | 1011.4 |
| 20260507042249 | 36 | 274 | 2.0 | 3.0 | 0.00 | 0.00 | 0.00 | 76 | 1011.5 |
| 20260507041749 | 36 | 272 | 2.0 | 3.0 | 0.00 | 0.00 | 0.00 | 76 | 1011.5 |
| 20260507041247 | 36 | 258 | 1.0 | 2.0 | 0.00 | 0.00 | 0.00 | 76 | 1011.5 |
| 20260507040746 | 36 | 255 | 1.0 | 3.0 | 0.00 | 0.00 | 0.00 | 76 | 1011.5 |
| 20260507040248 | 37 | 276 | 2.0 | 3.0 | 0.00 | 0.00 | 0.00 | 75 | 1011.5 |
| 20260507035741 | 37 | 255 | 2.0 | 3.0 | 0.00 | 0.00 | 0.00 | 75 | 1011.4 |
| 20260507035241 | 37 | 272 | 1.0 | 3.0 | 0.00 | 0.00 | 0.00 | 74 | 1011.4 |
| 20260507035008 | 37 | 276 | 2.0 | 3.0 | 0.00 | 0.00 | 0.00 | 74 | 1011.3 |
| 20260507034243 | 38 | 272 | 2.0 | 3.0 | 0.00 | 0.00 | 0.00 | 74 | 1011.4 |
| 20260507033740 | 38 | 268 | 2.0 | 3.0 | 0.00 | 0.00 | 0.00 | 73 | 1011.4 |
| 20260507033240 | 38 | 248 | 1.0 | 2.0 | 0.00 | 0.00 | 0.00 | 73 | 1011.4 |
| 20260507032740 | 38 | 250 | 1.0 | 2.0 | 0.00 | 0.00 | 0.00 | 72 | 1011.4 |
| 20260507032238 | 39 | 254 | 0.0 | 2.0 | 0.00 | 0.00 | 0.00 | 72 | 1011.5 |
| 20260507031238 | 39 | 269 | 1.0 | 3.0 | 0.00 | 0.00 | 0.00 | 71 | 1011.6 |
| 20260507030735 | 39 | 274 | 1.0 | 4.0 | 0.00 | 0.00 | 0.00 | 70 | 1011.6 |
| 20260507030234 | 39 | 274 | 2.0 | 4.0 | 0.00 | 0.00 | 0.00 | 71 | 1011.6 |
| 20260507025734 | 39 | 310 | 2.0 | 3.0 | 0.00 | 0.00 | 0.00 | 71 | 1011.6 |
| 20260507025501 | 40 | 283 | 1.0 | 4.0 | 0.00 | 0.00 | 0.00 | 72 | 1011.6 |
| 20260507024735 | 40 | 286 | 1.0 | 4.0 | 0.00 | 0.00 | 0.00 | 72 | 1011.6 |
| 20260507024233 | 40 | 309 | 1.0 | 3.0 | 0.00 | 0.00 | 0.00 | 73 | 1011.5 |
| 20260507023732 | 40 | 283 | 0.0 | 2.0 | 0.00 | 0.00 | 0.00 | 73 | 1011.3 |
| 20260507023233 | 40 | 316 | 0.0 | 3.0 | 0.00 | 0.00 | 0.00 | 73 | 1011.3 |
| 20260507022732 | 40 | 300 | 1.0 | 3.0 | 0.00 | 0.00 | 0.00 | 74 | 1011.4 |
| 20260507022232 | 40 | 317 | 0.0 | 3.0 | 0.00 | 0.00 | 0.00 | 74 | 1011.3 |
| 20260507021731 | 40 | 295 | 0.0 | 3.0 | 0.00 | 0.00 | 0.00 | 74 | 1011.3 |
| 20260507021231 | 40 | 334 | 2.0 | 3.0 | 0.00 | 0.00 | 0.00 | 72 | 1011.3 |
| 20260507020734 | 40 | 331 | 0.0 | 3.0 | 0.00 | 0.00 | 0.00 | 72 | 1011.3 |
| 20260507020458 | 40 | 329 | 2.0 | 3.0 | 0.00 | 0.00 | 0.00 | 71 | 1011.3 |
| 20260507015732 | 40 | 322 | 1.0 | 3.0 | 0.00 | 0.00 | 0.00 | 71 | 1011.3 |
| 20260507015231 | 40 | 281 | 1.0 | 3.0 | 0.00 | 0.00 | 0.00 | 71 | 1011.2 |
| 20260507014731 | 40 | 261 | 2.0 | 3.0 | 0.00 | 0.00 | 0.00 | 71 | 1011.2 |
| 20260507014231 | 40 | 259 | 2.0 | 3.0 | 0.00 | 0.00 | 0.00 | 70 | 1011.2 |
| 20260507013732 | 41 | 247 | 1.0 | 4.0 | 0.00 | 0.00 | 0.00 | 70 | 1011.1 |
| 20260507013234 | 41 | 261 | 1.0 | 4.0 | 0.00 | 0.00 | 0.00 | 69 | 1011.1 |
| 20260507012732 | 41 | 272 | 2.0 | 5.0 | 0.00 | 0.00 | 0.00 | 69 | 1011.1 |
| 20260507012232 | 41 | 296 | 1.0 | 5.0 | 0.00 | 0.00 | 0.00 | 69 | 1011.1 |
| 20260507011731 | 41 | 307 | 1.0 | 5.0 | 0.00 | 0.00 | 0.00 | 69 | 1011.1 |
| 20260507011232 | 41 | 334 | 2.0 | 5.0 | 0.00 | 0.00 | 0.00 | 69 | 1010.9 |
| 20260507010731 | 41 | 334 | 1.0 | 5.0 | 0.00 | 0.00 | 0.00 | 70 | 1011.0 |
| 20260507010232 | 41 | 351 | 2.0 | 5.0 | 0.00 | 0.00 | 0.00 | 68 | 1011.0 |
| 20260507005726 | 41 | 316 | 2.0 | 5.0 | 0.00 | 0.00 | 0.00 | 68 | 1011.0 |
| 20260507005454 | 41 | 322 | 2.0 | 7.0 | 0.00 | 0.00 | 0.00 | 68 | 1010.9 |
| 20260507004724 | 41 | 0 | 3.0 | 7.0 | 0.00 | 0.00 | 0.00 | 70 | 1011.0 |
| 20260507004224 | 41 | 243 | 2.0 | 5.0 | 0.00 | 0.00 | 0.00 | 73 | 1010.9 |
| 20260507003724 | 41 | 338 | 3.0 | 7.0 | 0.00 | 0.00 | 0.00 | 72 | 1010.9 |
| 20260507003225 | 41 | 340 | 3.0 | 7.0 | 0.00 | 0.00 | 0.00 | 71 | 1010.8 |
| 20260507002947 | 41 | 320 | 2.0 | 7.0 | 0.00 | 0.00 | 0.00 | 71 | 1010.8 |
| 20260507002223 | 41 | 333 | 3.0 | 7.0 | 0.00 | 0.00 | 0.00 | 73 | 1010.8 |
| 20260507001723 | 41 | 2 | 2.0 | 7.0 | 0.00 | 0.00 | 0.00 | 74 | 1010.8 |
| 20260507001223 | 41 | 358 | 4.0 | 9.0 | 0.00 | 0.00 | 0.00 | 73 | 1010.8 |
| 20260507000723 | 41 | 334 | 4.0 | 11.0 | 0.00 | 0.00 | 0.00 | 72 | 1010.8 |
| 20260507000223 | 41 | 340 | 5.0 | 12.0 | 0.00 | 0.00 | 0.00 | 73 | 1010.7 |
| 20260506235726 | 41 | 305 | 4.0 | 12.0 | 0.00 | 0.00 | 0.00 | 74 | 1010.7 |
| 20260506235220 | 41 | 11 | 4.0 | 7.0 | 0.00 | 0.00 | 0.00 | 75 | 1010.7 |
| 20260506234720 | 41 | 312 | 3.0 | 7.0 | 0.00 | 0.00 | 0.00 | 75 | 1010.6 |
| 20260506234219 | 41 | 336 | 3.0 | 10.0 | 0.00 | 0.00 | 0.00 | 74 | 1010.7 |
| 20260506233718 | 41 | 31 | 3.0 | 10.0 | 0.00 | 0.00 | 0.00 | 74 | 1010.7 |
| 20260506232717 | 41 | 28 | 4.0 | 11.0 | 0.00 | 0.00 | 0.00 | 73 | 1010.7 |
| 20260506232458 | 41 | 327 | 5.0 | 11.0 | 0.00 | 0.00 | 0.00 | 73 | 1010.6 |
| 20260506231718 | 41 | 351 | 4.0 | 14.0 | 0.00 | 0.00 | 0.00 | 73 | 1010.6 |
| 20260506231217 | 41 | 324 | 6.0 | 14.0 | 0.00 | 0.00 | 0.00 | 73 | 1010.8 |
| 20260506230938 | 41 | 340 | 4.0 | 12.0 | 0.00 | 0.00 | 0.00 | 73 | 1010.7 |
| 20260506230215 | 41 | 348 | 5.0 | 13.0 | 0.00 | 0.00 | 0.00 | 73 | 1010.7 |
| 20260506225659 | 41 | 323 | 6.0 | 12.0 | 0.00 | 0.00 | 0.00 | 73 | 1010.7 |
| 20260506225427 | 41 | 0 | 4.0 | 11.0 | 0.00 | 0.00 | 0.00 | 73 | 1010.7 |
| 20260506224700 | 41 | 0 | 5.0 | 11.0 | 0.00 | 0.00 | 0.00 | 72 | 1010.8 |
| 20260506224203 | 42 | 323 | 5.0 | 13.0 | 0.00 | 0.00 | 0.00 | 71 | 1010.8 |
| 20260506223657 | 42 | 320 | 7.0 | 13.0 | 0.00 | 0.00 | 0.00 | 70 | 1010.7 |
| 20260506223157 | 42 | 343 | 8.0 | 13.0 | 0.00 | 0.00 | 0.00 | 69 | 1010.6 |
| 20260506222925 | 42 | 353 | 5.0 | 14.0 | 0.00 | 0.00 | 0.00 | 69 | 1010.5 |
| 20260506222156 | 42 | 329 | 8.0 | 14.0 | 0.00 | 0.00 | 0.00 | 70 | 1010.6 |
| 20260506221922 | 42 | 330 | 4.0 | 12.0 | 0.00 | 0.00 | 0.00 | 69 | 1010.6 |
| 20260506221155 | 42 | 340 | 6.0 | 14.0 | 0.00 | 0.00 | 0.00 | 69 | 1010.7 |
| 20260506220656 | 42 | 357 | 5.0 | 14.0 | 0.00 | 0.00 | 0.00 | 69 | 1010.6 |
| 20260506220428 | 42 | 324 | 8.0 | 14.0 | 0.00 | 0.00 | 0.00 | 71 | 1010.5 |
| 20260506215627 | 42 | 314 | 6.0 | 14.0 | 0.00 | 0.00 | 0.00 | 71 | 1010.4 |
| 20260506215127 | 42 | 338 | 6.0 | 12.0 | 0.00 | 0.00 | 0.00 | 71 | 1010.4 |
| 20260506214627 | 42 | 17 | 6.0 | 13.0 | 0.00 | 0.00 | 0.00 | 72 | 1010.4 |
| 20260506214125 | 42 | 323 | 5.0 | 12.0 | 0.00 | 0.00 | 0.00 | 73 | 1010.4 |
| 20260506213852 | 42 | 333 | 6.0 | 12.0 | 0.00 | 0.00 | 0.00 | 72 | 1010.4 |
| 20260506213356 | 42 | 5 | 6.0 | 12.0 | 0.00 | 0.00 | 0.00 | 71 | 1010.3 |
| 20260506211621 | 42 | 7 | 4.0 | 13.0 | 0.00 | 0.00 | 0.00 | 71 | 1010.3 |
| 20260506211120 | 42 | 355 | 4.0 | 14.0 | 0.00 | 0.00 | 0.00 | 71 | 1010.3 |
| 20260506210620 | 42 | 331 | 5.0 | 14.0 | 0.00 | 0.00 | 0.00 | 69 | 1010.3 |
| 20260506210125 | 42 | 353 | 5.0 | 12.0 | 0.00 | 0.00 | 0.00 | 70 | 1010.2 |
| 20260506205522 | 42 | 55 | 5.0 | 12.0 | 0.00 | 0.00 | 0.00 | 70 | 1010.2 |
| 20260506205021 | 42 | 337 | 6.0 | 11.0 | 0.00 | 0.00 | 0.00 | 70 | 1010.3 |
| 20260506204520 | 42 | 324 | 3.0 | 11.0 | 0.00 | 0.00 | 0.00 | 69 | 1010.3 |
| 20260506204019 | 42 | 350 | 5.0 | 11.0 | 0.00 | 0.00 | 0.00 | 72 | 1010.2 |
| 20260506203745 | 41 | 327 | 2.0 | 9.0 | 0.00 | 0.00 | 0.00 | 72 | 1010.1 |
| 20260506203022 | 41 | 343 | 5.0 | 12.0 | 0.00 | 0.00 | 0.00 | 71 | 1010.2 |
| 20260506202520 | 41 | 340 | 6.0 | 13.0 | 0.00 | 0.00 | 0.00 | 71 | 1010.3 |
| 20260506202020 | 41 | 2 | 4.0 | 13.0 | 0.00 | 0.00 | 0.00 | 71 | 1010.3 |
| 20260506201520 | 41 | 350 | 5.0 | 12.0 | 0.00 | 0.00 | 0.00 | 71 | 1010.3 |
| 20260506201022 | 41 | 7 | 5.0 | 12.0 | 0.00 | 0.00 | 0.00 | 71 | 1010.4 |
| 20260506200519 | 41 | 345 | 4.0 | 12.0 | 0.00 | 0.00 | 0.00 | 70 | 1010.3 |
| 20260506200019 | 42 | 290 | 6.0 | 13.0 | 0.00 | 0.00 | 0.00 | 70 | 1010.3 |
| 20260506195018 | 42 | 309 | 8.0 | 14.0 | 0.00 | 0.00 | 0.00 | 71 | 1010.2 |
| 20260506194521 | 42 | 327 | 4.0 | 11.0 | 0.00 | 0.00 | 0.00 | 70 | 1010.2 |
| 20260506194019 | 42 | 334 | 4.0 | 12.0 | 0.00 | 0.00 | 0.00 | 69 | 1010.3 |
| 20260506193517 | 42 | 314 | 5.0 | 15.0 | 0.00 | 0.00 | 0.00 | 68 | 1010.2 |
| 20260506193016 | 42 | 327 | 6.0 | 15.0 | 0.00 | 0.00 | 0.00 | 68 | 1010.2 |
| 20260506192512 | 42 | 341 | 5.0 | 13.0 | 0.00 | 0.00 | 0.00 | 68 | 1010.2 |
| 20260506192012 | 42 | 344 | 7.0 | 12.0 | 0.00 | 0.00 | 0.00 | 69 | 1010.2 |
| 20260506191512 | 42 | 0 | 5.0 | 13.0 | 0.00 | 0.00 | 0.00 | 69 | 1010.2 |
| 20260506191015 | 42 | 354 | 7.0 | 16.0 | 0.00 | 0.00 | 0.00 | 68 | 1010.2 |
| 20260506190007 | 42 | 21 | 5.0 | 16.0 | 0.00 | 0.00 | 0.00 | 68 | 1010.3 |
| 20260506185506 | 42 | 2 | 5.0 | 12.0 | 0.00 | 0.00 | 0.00 | 68 | 1010.2 |
| 20260506185005 | 42 | 7 | 5.0 | 13.0 | 0.00 | 0.00 | 0.00 | 68 | 1010.2 |
| 20260506184506 | 42 | 310 | 4.0 | 13.0 | 0.00 | 0.00 | 0.00 | 68 | 1010.3 |
| 20260506184004 | 42 | 4 | 5.0 | 13.0 | 0.00 | 0.00 | 0.00 | 68 | 1010.3 |
| 20260506183503 | 42 | 329 | 4.0 | 11.0 | 0.00 | 0.00 | 0.00 | 69 | 1010.2 |
| 20260506183006 | 42 | 350 | 6.0 | 11.0 | 0.00 | 0.00 | 0.00 | 68 | 1010.2 |
| 20260506182003 | 43 | 319 | 6.0 | 13.0 | 0.00 | 0.00 | 0.00 | 66 | 1010.2 |
| 20260506181502 | 43 | 331 | 5.0 | 13.0 | 0.00 | 0.00 | 0.00 | 68 | 1010.2 |
| 20260506181002 | 42 | 326 | 2.0 | 12.0 | 0.00 | 0.00 | 0.00 | 69 | 1010.3 |
| 20260506180456 | 42 | 288 | 6.0 | 9.0 | 0.00 | 0.00 | 0.00 | 70 | 1010.4 |
| 20260506175957 | 42 | 30 | 4.0 | 9.0 | 0.00 | 0.00 | 0.00 | 69 | 1010.3 |
| 20260506175722 | 42 | 7 | 2.0 | 7.0 | 0.00 | 0.00 | 0.00 | 69 | 1010.4 |
| 20260506174953 | 42 | 338 | 3.0 | 9.0 | 0.00 | 0.00 | 0.00 | 69 | 1010.5 |
| 20260506174454 | 42 | 27 | 3.0 | 10.0 | 0.00 | 0.00 | 0.00 | 69 | 1010.4 |
| 20260506173955 | 42 | 25 | 4.0 | 10.0 | 0.00 | 0.00 | 0.00 | 67 | 1010.4 |
| 20260506173454 | 42 | 51 | 2.0 | 9.0 | 0.00 | 0.00 | 0.00 | 65 | 1010.5 |
| 20260506172954 | 42 | 340 | 3.0 | 7.0 | 0.00 | 0.00 | 0.00 | 66 | 1010.6 |
| 20260506172453 | 42 | 4 | 3.0 | 6.0 | 0.00 | 0.00 | 0.00 | 66 | 1010.7 |
| 20260506171951 | 42 | 17 | 2.0 | 9.0 | 0.00 | 0.00 | 0.00 | 68 | 1010.7 |
| 20260506170950 | 42 | 358 | 3.0 | 6.0 | 0.00 | 0.00 | 0.00 | 69 | 1010.8 |
| 20260506170449 | 42 | 357 | 4.0 | 7.0 | 0.00 | 0.00 | 0.00 | 69 | 1010.7 |
| 20260506165948 | 42 | 35 | 3.0 | 7.0 | 0.00 | 0.00 | 0.00 | 71 | 1010.8 |
| 20260506165448 | 42 | 73 | 1.0 | 7.0 | 0.00 | 0.00 | 0.00 | 73 | 1010.7 |
| 20260506164946 | 42 | 27 | 3.0 | 9.0 | 0.00 | 0.00 | 0.00 | 71 | 1010.7 |
| 20260506164446 | 42 | 71 | 4.0 | 9.0 | 0.00 | 0.00 | 0.00 | 69 | 1010.8 |
| 20260506163948 | 42 | 354 | 3.0 | 9.0 | 0.00 | 0.00 | 0.00 | 69 | 1010.8 |
| 20260506163445 | 42 | 24 | 4.0 | 7.0 | 0.00 | 0.00 | 0.00 | 67 | 1010.7 |
| 20260506162944 | 42 | 42 | 4.0 | 7.0 | 0.00 | 0.00 | 0.00 | 64 | 1010.7 |
| 20260506162444 | 42 | 9 | 4.0 | 7.0 | 0.00 | 0.00 | 0.00 | 64 | 1010.7 |
| 20260506162217 | 43 | 336 | 3.0 | 9.0 | 0.00 | 0.00 | 0.00 | 65 | 1010.7 |
| 20260506161443 | 43 | 28 | 4.0 | 9.0 | 0.00 | 0.00 | 0.00 | 64 | 1010.6 |
| 20260506160938 | 44 | 18 | 4.0 | 9.0 | 0.00 | 0.00 | 0.00 | 66 | 1010.6 |
| 20260506160700 | 43 | 41 | 3.0 | 7.0 | 0.00 | 0.00 | 0.00 | 69 | 1010.6 |
| 20260506155937 | 42 | 358 | 2.0 | 10.0 | 0.00 | 0.00 | 0.00 | 69 | 1010.6 |
| 20260506155438 | 42 | 343 | 5.0 | 10.0 | 0.00 | 0.00 | 0.00 | 68 | 1010.6 |